York, PA

9:21 PM EDT on April 28, 2017 (GMT -0400)
York

Weather History for KTHV - May, 2013

Change the Weather History Date:

Wednesday, May 22, 2013

  Actual Average Record
Temperature  
Mean Temperature 74 °F -  
Max Temperature 87 °F 81 °F 87 °F (2013)
Min Temperature 62 °F 47 °F 30 °F (2002)
Cooling Degree Days 10    
Growing Degree Days 24 (Base 50)    
Moisture  
Dew Point 64 °F    
Average Humidity 79    
Maximum Humidity 100    
Minimum Humidity 40    
Precipitation  
Precipitation 0.06 in - - ()
Sea Level Pressure  
Sea Level Pressure 29.88 in    
Wind  
Wind Speed 2 mph (WSW)    
Max Wind Speed 17 mph    
Max Gust Speed 28 mph    
Visibility 7 miles    
Events Rain , Thunderstorm    
Averages and records for this station are not official NWS values.
T = Trace of Precipitation, MM = Missing Value Source: NWS Daily Summary

Daily Weather History Graph

Daily Weather History Graph

Search for Another Location

Airport or City:

Trip Planner

Search our weather history database for the weather conditions in past years. The results will help you decide how hot, cold, wet, or windy it might be!

Date:

Astronomy

May. 22, 2013 Rise Set
Actual Time 5:46 AM EDT 8:22 PM EDT
Civil Twilight 5:15 AM EDT 8:53 PM EDT
Nautical Twilight 4:36 AM EDT 9:32 PM EDT
Astronomical Twilight 3:52 AM EDT 10:16 PM EDT
Moon 5:42 PM EDT (5/22) 3:49 AM EDT (5/22)
Length of Visible Light 15h 38m
Length of Day
14h 35m
Waxing Gibbous, 91% of the Moon is Illuminated
May 22
Waxing Gibbous
May 25
Full
May 31
Last Quarter
Jun 8
New
Jun 16
First Quarter

Hourly Weather History & Observations

Time (EDT) Temp. Heat Index Dew Point Humidity Pressure Visibility Wind Dir Wind Speed Gust Speed Precip Events Conditions
12:53 AM 72.0 °F - 66.0 °F 81% 29.88 in 10.0 mi Calm Calm - N/A   Clear
1:53 AM 70.0 °F - 66.9 °F 90% 29.86 in 10.0 mi Calm Calm - N/A   Clear
2:53 AM 70.0 °F - 66.0 °F 87% 29.86 in 10.0 mi Calm Calm - N/A   Clear
3:53 AM 66.0 °F - 64.0 °F 93% 29.85 in 6.0 mi Calm Calm - N/A   Clear
4:53 AM 64.9 °F - 62.1 °F 90% 29.86 in 6.0 mi Calm Calm - N/A   Clear
5:49 AM 62.6 °F - 60.8 °F 94% 29.86 in 2.0 mi Calm Calm - N/A   Clear
5:53 AM 62.1 °F - 61.0 °F 96% 29.86 in 1.8 mi Calm Calm - N/A   Clear
6:01 AM 62.6 °F - 60.8 °F 94% 29.86 in 2.5 mi Calm Calm - N/A   Clear
6:05 AM 62.6 °F - 60.8 °F 94% 29.86 in 1.8 mi Calm Calm - N/A   Clear
6:08 AM 62.6 °F - 60.8 °F 94% 29.86 in 0.8 mi Calm Calm - N/A   Mist
6:40 AM 64.4 °F - 62.6 °F 94% 29.87 in 1.2 mi Calm Calm - N/A   Mostly Cloudy
6:45 AM 64.4 °F - 62.6 °F 94% 29.89 in 2.5 mi West 4.6 mph - N/A   Mostly Cloudy
6:53 AM 66.0 °F - 64.9 °F 96% 29.89 in 2.5 mi WNW 3.5 mph - N/A   Scattered Clouds
7:02 AM 66.2 °F - 64.4 °F 94% 29.89 in 3.0 mi Calm Calm - N/A   Scattered Clouds
7:07 AM 66.2 °F - 64.4 °F 94% 29.89 in 2.0 mi Calm Calm - N/A   Mostly Cloudy
7:17 AM 66.2 °F - 66.2 °F 100% 29.90 in 1.8 mi Calm Calm - N/A   Mostly Cloudy
7:31 AM 68.0 °F - 66.2 °F 94% 29.90 in 0.8 mi Calm Calm - N/A   Overcast
7:38 AM 68.0 °F - 66.2 °F 94% 29.90 in 1.2 mi Calm Calm - N/A   Overcast
7:45 AM 69.8 °F - 66.2 °F 88% 29.90 in 2.5 mi Calm Calm - N/A   Overcast
7:53 AM 69.1 °F - 66.9 °F 93% 29.90 in 3.0 mi Calm Calm - N/A   Mostly Cloudy
8:04 AM 69.8 °F - 68.0 °F 94% 29.91 in 5.0 mi Calm Calm - N/A   Scattered Clouds
8:53 AM 75.9 °F - 68.0 °F 76% 29.91 in 10.0 mi Calm Calm - N/A   Clear
9:53 AM 80.1 °F 81.9 °F 64.9 °F 60% 29.91 in 10.0 mi SW 5.8 mph - N/A   Clear
10:53 AM 81.0 °F 82.2 °F 63.0 °F 54% 29.91 in 10.0 mi WSW 6.9 mph - N/A   Clear
11:53 AM 84.0 °F 84.4 °F 61.0 °F 46% 29.90 in 10.0 mi SW 3.5 mph - N/A   Clear
12:53 PM 84.9 °F 85.4 °F 62.1 °F 46% 29.88 in 10.0 mi West 3.5 mph - N/A   Clear
1:53 PM 86.0 °F 86.3 °F 62.1 °F 44% 29.87 in 10.0 mi SSW 6.9 mph - N/A   Clear
2:53 PM 86.0 °F 86.1 °F 61.0 °F 43% 29.86 in 10.0 mi SSW 9.2 mph 16.1 mph N/A   Clear
3:53 PM 87.1 °F 86.7 °F 60.1 °F 40% 29.83 in 10.0 mi SSW 8.1 mph - N/A   Clear
4:53 PM 84.9 °F 85.0 °F 61.0 °F 44% 29.82 in 10.0 mi South 10.4 mph 20.7 mph N/A   Clear
5:53 PM 84.0 °F 85.4 °F 64.0 °F 51% 29.81 in 10.0 mi South 9.2 mph 17.3 mph N/A   Clear
6:53 PM 82.0 °F 84.5 °F 66.9 °F 60% 29.82 in 10.0 mi Variable 5.8 mph - N/A   Clear
7:53 PM 79.0 °F - 69.1 °F 72% 29.85 in 8.0 mi WSW 5.8 mph - N/A   Mostly Cloudy
8:23 PM 73.4 °F - 60.8 °F 65% 29.88 in 10.0 mi West 17.3 mph 27.6 mph 0.00 in Rain , Thunderstorm Light Rain
8:38 PM 69.8 °F - 60.8 °F 73% 29.88 in 10.0 mi West 8.1 mph 18.4 mph 0.00 in   Mostly Cloudy
8:53 PM 70.0 °F - 61.0 °F 73% 29.88 in 10.0 mi West 5.8 mph - 0.00 in Thunderstorm Scattered Clouds
9:12 PM 69.8 °F - 62.6 °F 78% 29.89 in 10.0 mi Calm Calm - N/A   Clear
9:43 PM 69.8 °F - 62.6 °F 78% 29.91 in 10.0 mi Calm Calm - N/A Thunderstorm Mostly Cloudy
9:53 PM 69.1 °F - 62.1 °F 78% 29.91 in 9.0 mi Calm Calm - N/A Thunderstorm Overcast
10:05 PM 68.0 °F - 64.4 °F 88% 29.90 in 7.0 mi ENE 5.8 mph - 0.02 in Rain Rain
10:25 PM 66.2 °F - 64.4 °F 94% 29.91 in 10.0 mi Calm Calm - 0.02 in Thunderstorm Mostly Cloudy
10:40 PM 66.2 °F - 64.4 °F 94% 29.91 in 10.0 mi Calm Calm - 0.02 in Rain Light Rain
10:53 PM 66.0 °F - 64.0 °F 93% 29.93 in 10.0 mi WSW 5.8 mph - 0.02 in   Mostly Cloudy
11:53 PM 64.9 °F - 63.0 °F 93% 29.89 in 10.0 mi Calm Calm - 0.04 in   Scattered Clouds